TimeEDT,TemperatureF,Dew PointF,Humidity,Sea Level PressureIn,VisibilityMPH,Wind Direction,Wind SpeedMPH,Gust SpeedMPH,PrecipitationIn,Events,Conditions,WindDirDegrees,DateUTC
12:53 AM,61.0,50.0,67,30.09,10.0,SSW,3.5,-,N/A,,Clear,200,2012-10-23 04:53:00
2:53 AM,59.0,50.0,72,30.11,10.0,Calm,Calm,-,N/A,,Clear,0,2012-10-23 06:53:00
3:53 AM,57.9,50.0,75,30.10,10.0,Calm,Calm,-,N/A,,Clear,0,2012-10-23 07:53:00
4:53 AM,55.9,50.0,80,30.09,10.0,Calm,Calm,-,N/A,,Overcast,0,2012-10-23 08:53:00
5:53 AM,60.1,51.1,72,30.10,10.0,Calm,Calm,-,N/A,,Overcast,0,2012-10-23 09:53:00
6:53 AM,59.0,51.1,75,30.11,10.0,Calm,Calm,-,N/A,,Overcast,0,2012-10-23 10:53:00
8:53 AM,62.1,52.0,70,30.13,10.0,Calm,Calm,-,N/A,,Overcast,0,2012-10-23 12:53:00
9:53 AM,64.9,52.0,63,30.12,10.0,SW,4.6,-,N/A,,Scattered Clouds,230,2012-10-23 13:53:00
10:53 AM,72.0,51.1,48,30.10,10.0,Variable,5.8,-,N/A,,Scattered Clouds,0,2012-10-23 14:53:00
11:53 AM,71.1,50.0,47,30.12,10.0,SW,10.4,-,N/A,,Mostly Cloudy,230,2012-10-23 15:53:00
1:53 PM,75.0,50.0,41,30.08,10.0,WSW,8.1,-,N/A,,Partly Cloudy,240,2012-10-23 17:53:00
2:53 PM,78.1,50.0,37,30.06,10.0,SW,6.9,-,N/A,,Partly Cloudy,230,2012-10-23 18:53:00
3:53 PM,77.0,50.0,39,30.05,10.0,SSW,11.5,19.6,N/A,,Clear,210,2012-10-23 19:53:00
4:53 PM,75.9,50.0,40,30.05,10.0,SSW,4.6,-,N/A,,Clear,210,2012-10-23 20:53:00
5:53 PM,75.0,51.1,43,30.05,10.0,SW,6.9,-,N/A,,Clear,220,2012-10-23 21:53:00
7:53 PM,69.1,51.1,53,30.08,10.0,Calm,Calm,-,N/A,,Clear,0,2012-10-23 23:53:00
8:53 PM,66.0,51.1,59,30.08,10.0,South,3.5,-,N/A,,Clear,180,2012-10-24 00:53:00
9:53 PM,64.9,51.1,61,30.09,10.0,South,3.5,-,N/A,,Clear,190,2012-10-24 01:53:00
10:53 PM,63.0,51.1,65,30.09,10.0,South,3.5,-,N/A,,Clear,190,2012-10-24 02:53:00
11:53 PM,59.0,52.0,78,30.10,10.0,South,3.5,-,N/A,,Clear,180,2012-10-24 03:53:00